Theta_e
284 286 287 290 295 298 299 302 306 307 312 317 319 323 323 323 324 325 327 328 330 329 328 329 332 330 328 326 328 329 330 328 329 331 331 330 329 328 327 326 326 325 325
281 284 286 287 289 291 298 300 303 302 307 312 316 319 321 322 322 323 324 326 325 328 328 328 330 330 327 327 327 328 328 329 329 328 328 326 326 326 326 325 325 323 324
277 279 283 284 286 289 290 293 300 303 306 307 314 315 317 319 319 320 322 323 323 325 325 326 328 328 328 328 326 328 326 326 327 327 326 322 323 323 323 324 325 324 324
275 277 280 283 284 286 288 290 291 297 300 301 310 313 315 315 317 317 318 319 322 322 323 323 325 326 326 326 325 326 326 325 324 325 325 324 324 322 320 322 323 324 324
273 275 277 280 281 284 286 288 289 292 298 303 305 311 313 313 313 314 316 317 318 318 319 320 322 322 323 326 325 326 325 325 324 324 323 324 323 324 323 321 324 325 325
273 275 276 278 281 282 284 286 288 289 292 296 301 305 309 310 311 311 311 312 314 316 317 319 320 320 319 320 322 321 324 325 325 323 322 322 323 323 324 324 324 324 325
272 274 276 277 279 281 282 284 286 288 289 289 293 300 302 304 305 307 307 309 312 312 313 315 317 318 318 320 318 320 320 320 323 322 322 322 322 322 323 323 322 322 323
272 273 274 275 277 279 280 282 284 285 287 289 289 291 294 298 299 301 303 304 306 307 309 312 313 314 314 315 315 317 319 319 320 319 318 320 319 319 321 322 323 320 319
272 273 274 275 276 277 278 280 282 283 285 286 287 288 290 292 294 296 298 300 302 304 305 307 309 311 311 311 311 311 313 315 314 315 315 316 315 315 316 317 320 320 318
272 273 273 274 275 276 277 279 280 281 283 284 286 287 288 289 289 291 293 294 296 299 301 302 305 306 307 308 308 309 310 309 310 312 313 313 313 313 313 314 315 316 317
272 272 273 274 274 275 277 278 279 280 281 283 284 285 286 287 288 289 290 291 292 294 296 299 300 301 303 306 304 307 307 307 307 308 309 310 311 310 311 312 313 312 313
273 273 272 273 274 275 276 277 278 279 279 281 282 283 284 285 286 287 288 289 290 292 293 294 296 297 299 300 301 303 305 305 305 305 305 306 306 308 309 310 311 310 311
273 273 273 273 273 274 274 275 277 277 278 279 281 282 283 283 284 285 286 287 288 289 290 291 292 293 294 296 297 299 299 300 300 301 302 303 304 304 305 306 307 307 309
273 273 272 273 273 273 273 274 275 276 277 278 280 281 281 282 282 283 284 285 286 287 288 288 289 290 290 292 292 294 295 295 296 296 298 299 299 300 301 302 303 304 305
273 273 272 272 272 272 273 273 274 275 276 277 279 279 279 281 282 282 283 283 284 284 284 285 285 286 287 289 290 291 291 292 292 293 293 293 294 296 296 297 298 299 300
273 273 273 272 272 272 272 272 273 273 274 274 275 277 279 280 281 281 282 282 283 283 283 283 283 283 284 286 287 288 289 289 290 290 289 290 291 291 293 294 294 295 296
273 273 273 272 272 272 272 272 272 272 273 273 273 273 274 276 278 280 281 281 282 282 282 282 282 281 282 283 284 286 287 287 287 287 287 288 288 289 289 290 291 292 292
272 273 273 273 272 272 271 271 272 272 272 272 272 272 273 273 274 274 276 279 280 281 281 281 281 281 280 282 283 284 284 284 284 284 284 284 284 285 287 288 288 288 288
273 273 272 272 273 272 272 272 271 271 272 272 272 272 272 272 273 273 274 274 275 276 278 279 280 280 279 281 281 282 282 283 283 283 284 283 283 284 284 285 285 285 286
272 273 273 273 272 272 273 272 272 272 272 272 272 272 272 272 272 273 273 273 274 274 274 275 275 277 278 278 280 280 281 281 281 282 282 282 282 282 283 283 284 284 284
272 272 273 273 273 272 272 272 272 272 272 272 272 272 272 272 272 272 272 272 273 273 273 274 274 274 276 276 276 277 279 280 280 280 280 280 280 280 281 282 283 283 283
270 271 272 273 273 274 273 272 272 272 272 272 272 271 272 272 272 272 272 272 272 273 273 273 273 273 274 275 275 275 275 276 277 278 278 278 278 279 279 280 281 281 281
270 270 270 272 272 273 273 274 272 272 272 272 272 272 272 272 272 272 271 271 271 271 272 272 272 272 272 273 274 274 274 274 274 275 275 276 276 276 276 276 276 277 278
269 269 269 269 271 272 272 273 273 273 272 272 272 272 272 272 272 272 272 271 271 271 271 271 272 272 272 272 272 272 273 273 274 274 274 273 273 274 274 274 274 274 274
268 268 268 268 269 271 272 272 273 273 274 273 272 272 272 272 272 272 272 272 271 271 271 271 271 271 271 272 273 274 274 273 273 273 273 274 274 274 274 274 274 274 274
267 268 268 268 269 270 270 271 272 272 273 273 274 273 272 272 272 272 272 272 272 271 271 271 272 272 272 272 273 274 275 276 274 274 274 273 273 273 272 272 272 272 273
Wind_Speed
12 11 10 7 2 2 4 6 11 12 15 18 21 27 26 28 24 29 28 25 28 27 24 22 21 20 20 22 22 24 23 27 33 34 36 36 32 27 31 32 36 38 36
17 14 14 12 9 5 2 4 4 6 13 17 16 20 23 24 26 27 28 25 27 31 26 27 24 23 23 27 26 29 29 27 29 30 32 17 22 26 31 34 33 34 35
21 20 17 16 13 10 6 0 6 6 9 12 18 15 17 21 24 19 21 24 30 29 27 28 28 30 27 30 30 32 33 31 32 32 19 11 9 24 31 33 32 37 38
21 20 19 16 16 13 10 6 2 7 10 11 19 21 16 18 15 19 21 17 18 22 25 24 27 35 34 32 29 31 32 31 35 34 32 20 13 10 11 27 34 30 29
21 21 20 18 16 13 11 9 7 2 6 10 11 17 19 15 14 18 18 13 21 22 22 22 26 24 29 32 31 31 32 31 32 34 33 25 21 17 14 19 27 29 24
22 21 18 16 15 13 10 9 7 5 4 11 14 17 18 20 18 14 12 15 22 17 20 22 25 25 26 29 26 33 36 35 32 33 33 32 28 24 22 19 29 27 27
22 25 24 23 19 17 14 12 10 8 6 5 11 17 18 18 17 17 16 15 15 15 17 19 20 22 23 24 27 30 29 32 32 33 34 34 31 27 28 21 24 30 29
22 24 24 24 23 20 18 15 14 12 9 8 9 12 15 18 16 15 15 15 15 15 16 17 18 20 20 22 25 28 30 27 31 29 30 29 28 23 23 27 25 22 25
22 23 23 23 23 23 22 19 17 16 13 13 11 11 12 13 15 16 15 15 15 16 15 16 19 20 22 22 23 23 24 25 27 25 24 25 24 17 13 16 21 23 23
19 22 22 21 21 21 21 20 20 20 18 16 15 14 13 12 13 14 16 16 15 16 16 16 17 20 21 22 22 23 23 25 25 24 23 21 17 16 13 13 10 16 18
17 20 20 19 18 18 19 20 21 21 21 19 18 16 16 15 15 14 14 16 16 16 16 17 17 18 21 21 20 22 21 20 20 21 21 21 21 20 18 15 13 11 15
17 20 20 19 18 18 18 18 19 20 21 20 19 19 18 18 17 16 16 16 16 17 17 16 18 18 18 20 22 22 20 19 19 19 18 18 17 17 16 16 17 17 17
16 16 19 19 18 17 16 16 15 17 18 18 19 19 20 20 21 18 17 17 18 19 19 19 18 18 19 19 19 21 21 19 19 18 16 16 16 14 14 16 17 18 17
16 16 16 17 17 16 14 14 14 14 15 16 16 18 20 21 23 23 20 20 20 20 20 22 19 18 19 20 20 20 21 20 17 16 15 13 12 12 12 14 15 16 15
16 16 15 16 16 15 14 14 14 14 14 14 13 15 16 17 18 23 27 25 24 24 22 23 22 19 19 19 19 20 20 19 19 18 16 13 11 10 11 9 9 11 11
15 15 15 15 16 15 13 13 13 12 13 14 13 13 11 12 14 14 20 24 24 24 22 23 24 21 19 18 19 20 21 22 22 22 21 17 16 14 11 10 8 7 8
17 15 14 14 14 14 13 10 9 9 9 8 8 8 8 8 8 9 12 15 18 20 20 21 22 24 19 16 17 17 19 20 20 20 18 16 16 13 14 12 10 10 9
19 17 16 13 11 12 11 9 9 7 6 6 6 6 7 7 8 8 6 7 9 9 11 13 15 16 15 17 17 16 18 19 20 20 18 16 15 14 12 11 12 12 11
19 15 14 15 12 12 11 9 8 5 5 5 5 5 6 6 6 7 7 7 8 8 8 8 10 10 13 13 14 15 17 18 22 24 23 17 13 13 11 10 11 12 11
19 16 12 12 12 11 10 9 8 7 5 5 5 5 5 5 5 6 6 6 7 8 8 9 9 11 11 7 11 12 14 16 17 19 19 13 12 10 10 9 10 10 9
19 16 13 11 10 10 9 8 7 7 5 4 4 4 4 4 5 6 6 6 7 8 7 8 10 9 11 10 8 10 11 12 13 14 14 14 13 12 9 7 6 6 7
19 17 15 13 10 10 10 8 6 7 5 4 3 3 3 3 4 4 5 5 6 7 7 8 9 9 9 13 10 7 8 10 11 13 13 13 7 6 8 6 6 6 5
17 15 16 14 11 9 9 8 7 8 7 5 4 4 3 1 2 2 3 4 4 6 7 8 8 8 7 6 10 8 10 10 12 13 11 7 5 4 4 3 3 4 4
15 16 15 14 13 11 10 9 8 10 11 9 8 6 5 4 2 2 2 2 3 4 5 7 8 8 8 9 10 9 8 10 9 11 10 9 8 7 7 6 6 6 5
16 16 15 14 13 12 11 10 10 10 11 11 11 11 10 9 7 5 4 4 4 6 7 7 8 8 8 11 13 9 4 6 8 8 8 6 5 4 3 3 4 5 4
16 17 15 15 15 13 11 11 11 11 11 12 12 13 13 13 12 10 9 7 7 7 9 11 9 5 1 7 8 7 7 5 10 9 9 7 6 5 5 4 4 3 2
Wind_Direction
356 352 349 343 296 214 241 206 204 191 191 184 187 194 200 209 211 222 211 209 212 230 226 219 219 219 216 209 206 195 179 172 176 184 190 199 203 209 216 222 222 214 210
358 355 351 351 350 349 176 194 191 211 197 180 186 192 200 202 212 222 212 217 221 219 229 220 220 218 214 207 206 207 203 207 204 190 193 192 212 220 223 219 218 216 218
2 357 357 356 348 348 5 112 175 197 205 163 179 189 191 217 218 209 205 215 222 225 220 227 219 219 217 210 211 217 222 220 207 208 196 179 206 221 229 220 220 221 229
7 5 2 2 1 356 344 333 1 145 168 190 167 181 192 213 209 213 219 212 216 221 219 220 221 225 220 221 221 221 227 223 214 205 204 205 203 181 197 218 227 230 239
9 11 12 12 10 5 0 354 342 0 159 149 159 168 189 199 206 218 218 207 228 230 219 213 223 223 224 227 220 222 221 212 213 215 213 204 206 209 191 195 196 214 215
15 20 22 22 24 25 23 21 13 13 95 140 158 162 178 190 198 205 204 212 226 227 222 222 222 227 222 222 228 224 216 212 214 219 215 224 221 218 216 205 199 203 208
19 24 26 28 32 34 36 42 40 42 57 111 132 148 164 175 181 189 197 197 199 199 207 207 211 214 219 228 218 222 227 211 217 222 223 227 228 216 209 216 211 211 217
18 26 30 32 36 41 44 50 55 58 63 68 93 127 149 155 164 174 184 191 190 194 195 200 203 208 208 213 217 215 215 222 224 225 224 221 223 224 218 220 224 208 207
13 21 29 33 38 43 46 52 59 63 67 72 82 93 110 132 144 155 164 174 181 185 187 194 197 198 209 202 207 205 210 216 216 215 216 219 228 231 226 229 224 217 203
13 18 24 30 37 44 50 56 61 63 67 73 78 83 94 109 122 129 141 150 159 164 176 178 184 183 191 195 200 200 195 195 197 204 212 213 212 212 216 223 229 233 220
12 16 19 26 32 42 50 54 62 67 70 75 79 88 95 100 104 114 119 124 136 142 153 164 170 175 174 182 188 190 191 197 199 198 204 212 213 204 204 209 212 213 218
5 15 17 20 27 34 44 52 59 65 67 73 79 83 89 94 101 105 109 115 118 124 129 139 150 154 160 161 172 169 172 184 190 187 190 194 196 201 201 200 205 213 219
4 11 14 16 21 26 34 44 55 63 66 73 80 83 86 90 90 94 101 108 112 113 117 119 124 130 139 147 147 150 155 159 163 167 171 178 184 190 190 195 198 202 210
1 6 12 16 15 15 25 38 46 55 65 69 78 84 85 90 90 88 95 98 100 106 108 108 109 116 122 128 131 134 138 142 146 149 154 159 172 182 189 199 206 206 204
358 360 1 13 14 11 15 28 36 42 52 58 74 82 83 92 101 96 94 99 97 95 98 102 93 102 108 113 120 122 124 125 126 123 124 125 136 149 162 170 178 187 192
359 352 354 6 10 7 12 16 21 35 46 44 51 58 75 91 100 107 103 101 101 100 97 96 95 88 86 101 111 122 124 122 117 116 115 115 117 112 125 134 148 158 160
347 350 349 357 354 359 1 13 30 25 39 50 59 73 72 62 75 100 110 120 113 108 101 99 100 90 88 97 98 104 112 114 113 112 111 114 107 113 117 122 127 125 130
340 349 350 355 354 348 354 5 13 20 38 53 58 67 82 92 102 108 111 114 124 129 117 103 94 93 94 111 108 109 108 112 112 108 102 103 105 104 105 106 111 108 108
343 337 340 338 348 345 353 1 2 12 28 43 57 61 74 84 96 103 114 126 132 135 130 129 119 103 94 121 121 123 121 120 118 112 108 101 99 105 102 111 111 108 101
343 346 332 325 327 335 344 348 344 355 16 34 39 60 63 76 89 95 101 113 126 129 134 137 142 131 110 100 140 141 134 131 128 128 118 98 87 102 114 112 106 110 112
340 342 341 332 324 320 321 322 331 340 353 15 29 38 63 73 85 95 107 110 111 116 125 135 143 146 133 96 131 148 154 152 147 136 126 114 116 110 100 129 136 122 110
342 344 346 345 333 316 308 310 322 313 323 338 353 3 34 52 64 79 88 101 112 123 128 134 143 142 138 111 88 120 144 152 158 152 145 129 153 165 115 176 159 162 166
337 340 340 339 342 330 308 302 292 287 290 293 300 305 316 355 37 62 86 104 127 138 144 137 131 128 129 123 123 102 113 136 145 146 144 149 163 149 147 192 176 183 182
336 335 335 334 334 330 319 309 290 273 274 273 274 278 277 270 245 199 170 157 162 160 153 142 132 128 119 117 119 122 134 144 140 132 129 129 122 117 114 106 99 99 105
326 332 334 334 332 325 321 310 295 283 273 268 265 264 265 265 257 243 225 211 196 188 176 160 143 132 137 145 135 109 101 168 158 154 147 144 141 132 126 114 83 69 71
327 330 333 333 331 330 323 311 297 286 279 271 264 262 259 257 255 250 244 232 218 212 200 179 158 101 115 181 168 140 167 169 187 169 160 165 160 150 133 110 92 75 55